FW4370 Weather Reports


Display with metric or nautical units.
time (UTC)temp
F
wind
direction
speed
MPH
gust
MPH
rain 1hr
in
rain 24hr
in
rain mn
in
humidity
%
barometer
mb
20260901101511 58 300 0.0 0.0 0.00 0.00 0.00 69 1010.9
20260901100008 59 300 0.0 0.0 0.00 0.00 0.00 68 1010.8
20260901094506 59 300 0.0 0.0 0.00 0.00 0.00 68 1010.8
20260901093004 60 300 0.0 0.0 0.00 0.00 0.00 68 1010.9
20260901091607 60 240 0.0 0.0 0.00 0.00 0.00 68 1011.0
20260901090058 60 222 0.0 0.0 0.00 0.00 0.00 67 1010.9
20260901084555 59 222 0.0 0.0 0.00 0.00 0.00 67 1010.8
20260901083052 58 12 0.0 0.0 0.00 0.00 0.00 66 1010.8
20260901081547 59 12 0.0 0.0 0.00 0.00 0.00 66 1011.0
20260901080044 60 12 0.0 0.0 0.00 0.00 0.00 65 1011.1
20260901074545 61 328 0.0 1.0 0.00 0.00 0.00 65 1011.0
20260901073033 61 40 0.0 0.0 0.00 0.00 0.00 65 1010.9
20260901071528 62 40 0.0 0.0 0.00 0.00 0.00 65 1010.6
20260901070023 61 40 0.0 1.0 0.00 0.00 0.00 65 1010.6
20260901064522 62 40 0.0 0.0 0.00 0.00 0.00 65 1010.8
20260901063024 62 40 0.0 0.0 0.00 0.00 0.00 64 1010.7
20260901061519 62 40 0.0 0.0 0.00 0.00 0.00 64 1010.6
20260901060016 63 40 0.0 2.0 0.00 0.00 0.00 63 1010.6
20260901054512 62 44 0.0 1.0 0.00 0.00 0.00 63 1010.4
20260901053010 62 44 0.0 1.0 0.00 0.00 0.00 63 1010.4
20260901051507 63 44 0.0 0.0 0.00 0.00 0.00 62 1010.3
20260901050004 63 44 0.0 0.0 0.00 0.00 0.00 62 1010.2
20260901044505 64 44 0.0 1.0 0.00 0.00 0.00 61 1010.1
20260901043058 62 41 0.0 0.0 0.00 0.00 0.00 60 1010.0
20260901041600 64 42 0.0 0.0 0.00 0.00 0.00 60 1009.7
20260901040052 64 41 0.0 1.0 0.00 0.00 0.00 60 1009.4
20260901034546 65 252 0.0 1.0 0.00 0.00 0.00 60 1009.3
20260901033056 65 255 0.0 2.0 0.00 0.00 0.00 59 1009.2
20260901031538 66 113 0.0 1.0 0.00 0.00 0.00 58 1009.0
20260901030135 66 113 0.0 0.0 0.00 0.00 0.00 58 1008.5
20260901024534 67 113 0.0 1.0 0.00 0.00 0.00 57 1008.3
20260901023033 68 113 0.0 0.0 0.00 0.00 0.00 56 1008.2
20260901021539 69 113 0.0 1.0 0.00 0.00 0.00 56 1007.9
20260901020032 70 96 0.0 1.0 0.00 0.00 0.00 56 1007.9
20260901014526 71 177 0.0 6.0 0.00 0.00 0.00 56 1008.0
20260901013028 72 103 2.0 5.0 0.00 0.00 0.00 56 1007.9
20260901011522 71 115 2.0 6.0 0.00 0.00 0.00 56 1008.0
20260901010020 71 155 1.0 4.0 0.00 0.00 0.00 55 1007.9
20260901004518 71 138 1.0 6.0 0.00 0.00 0.00 55 1007.9
20260901003033 71 82 2.0 7.0 0.00 0.00 0.00 55 1008.2
20260901001518 71 120 4.0 9.0 0.00 0.00 0.00 54 1008.1
20260901000028 71 117 3.0 9.0 0.00 0.00 0.00 54 1008.0
20260831234511 72 152 5.0 10.0 0.00 0.00 0.00 53 1008.1
20260831233009 71 132 4.0 8.0 0.00 0.00 0.00 52 1008.2
20260831231508 72 103 2.0 11.0 0.00 0.00 0.00 51 1008.2
20260831230014 72 114 5.0 9.0 0.00 0.00 0.00 51 1008.6
20260831224603 73 123 5.0 10.0 0.00 0.00 0.00 51 1008.2
20260831223002 73 114 5.0 11.0 0.00 0.00 0.00 51 1008.3
20260831221608 74 106 4.0 13.0 0.00 0.00 0.00 51 1008.2
20260831220100 75 106 5.0 12.0 0.00 0.00 0.00 51 1008.1
20260831214603 75 77 5.0 12.0 0.00 0.00 0.00 51 1008.3
20260831213054 76 102 6.0 11.0 0.00 0.00 0.00 52 1008.4
20260831211552 75 127 6.0 12.0 0.00 0.00 0.00 52 1008.5
20260831210049 74 73 6.0 11.0 0.00 0.00 0.00 52 1008.7
20260831204547 74 95 4.0 13.0 0.00 0.00 0.00 52 1008.8
20260831203057 77 107 4.0 9.0 0.00 0.00 0.00 53 1009.0
20260831201548 76 88 2.0 7.0 0.00 0.00 0.00 54 1009.1
20260831200046 74 124 1.0 6.0 0.00 0.00 0.00 54 1009.4
20260831194541 74 105 3.0 7.0 0.00 0.00 0.00 54 1009.7
20260831193035 76 150 4.0 8.0 0.00 0.00 0.00 56 1009.7
20260831191534 75 153 3.0 10.0 0.00 0.00 0.00 56 1009.9
20260831190131 74 115 5.0 10.0 0.00 0.00 0.00 57 1009.9
20260831184530 72 64 5.0 11.0 0.00 0.00 0.00 57 1010.2
20260831183023 71 108 4.0 12.0 0.00 0.00 0.00 57 1010.1
20260831181520 73 133 6.0 13.0 0.00 0.00 0.00 57 1009.9
20260831180015 73 93 8.0 14.0 0.00 0.00 0.00 58 1009.8
20260831174512 72 113 8.0 14.0 0.00 0.00 0.00 58 1009.8
20260831173011 71 112 5.0 11.0 0.00 0.00 0.00 58 1009.7
20260831171508 71 98 8.0 15.0 0.00 0.00 0.00 59 1009.7
20260831170006 73 175 8.0 14.0 0.00 0.00 0.00 61 1009.4
20260831164601 73 93 6.0 13.0 0.00 0.00 0.00 63 1009.3
20260831163057 71 123 8.0 13.0 0.00 0.00 0.00 66 1009.2
20260831161554 69 78 5.0 11.0 0.00 0.00 0.00 68 1009.3
20260831154555 64 62 4.0 8.0 0.00 0.00 0.00 70 1009.4
20260831153045 62 56 2.0 7.0 0.00 0.00 0.00 69 1009.1
20260831151543 62 75 1.0 4.0 0.00 0.00 0.00 69 1008.9
20260831150041 62 74 0.0 3.0 0.00 0.00 0.00 69 1009.0
20260831144549 62 74 0.0 1.0 0.00 0.00 0.00 69 1008.9
20260831143037 61 277 0.0 0.0 0.00 0.00 0.00 68 1008.9
20260831141533 60 276 0.0 0.0 0.00 0.00 0.00 68 1008.9
20260831140035 60 290 0.0 2.0 0.00 0.00 0.00 67 1008.8
20260831134530 59 304 0.0 0.0 0.00 0.00 0.00 66 1008.6
20260831133033 58 307 0.0 1.0 0.00 0.00 0.00 64 1008.3
20260831131526 57 269 0.0 1.0 0.00 0.00 0.00 63 1008.1
20260831130022 57 269 0.0 1.0 0.00 0.00 0.00 61 1008.0
20260831124520 57 325 0.0 0.0 0.00 0.00 0.00 60 1007.9
20260831123015 58 325 0.0 0.0 0.00 0.00 0.00 59 1007.7
20260831121509 59 325 0.0 1.0 0.00 0.00 0.00 57 1007.5
20260831120006 60 295 1.0 4.0 0.00 0.00 0.00 57 1007.1
20260831114501 61 346 0.0 2.0 0.00 0.00 0.00 56 1007.0
20260831113106 63 24 0.0 5.0 0.00 0.00 0.00 57 1007.0
20260831111611 62 44 0.0 3.0 0.00 0.00 0.00 57 1006.8
20260831110052 62 49 0.0 1.0 0.00 0.00 0.00 56 1007.0
20260831104549 61 74 1.0 3.0 0.00 0.00 0.00 55 1007.0
20260831103045 62 65 0.0 2.0 0.00 0.00 0.00 54 1007.2
20260831101550 63 66 0.0 2.0 0.00 0.00 0.00 54 1007.3